CZ-6A DEB, 61405

Orbit data source: Space-Track

CZ-6A DEB, 61405 is space debris in LEO originally from a launch on Tue, 06 Aug 2024 UTC launched from the Taiyaun Space Center, China (TSC). Debris objects in space refer to the collection of defunct objects orbiting the Earth. Examples of debris include non-operational satellites, rocket bodies, and fragments generated from explosions, collisions, or faulty payload assembly.

Loading next visibility...
Identifier
61405, 2024-140XW
Orbit
LEO
Country
Flag of CNCN / PRC
Related business
Manufacturer
SAST
Mission
Spacecraft
Bus & Motor
Unknown
Mass
Unknown
Launch date (UTC)
2024-08-06 (2 years ago)
Launch vehicle
Unknown
Launch site
Taiyaun Space Center, China (TSC)
Object type
Payload
Rocket body
Debris
Shape & HBR
Unknown shape, 0.1 m
Radar Cross Section
Medium (>0.1 m² and <1 m²)

Expand to show TLE details & history
Last TLE update: 15 hours ago

TLE from 15 hours ago
0 CZ-6A DEB
1 61405U 24140XW  26171.26755944  .00003927  00000-0  91195-3 0  9995
2 61405  88.8858 261.1032 0044407 241.4395 118.2342 14.54213389 93851
Epoch: 2026-06-20T06:25Z
TLE epoch observation values (Epoch: 2026-06-20T06:25:17.135Z)
Latitude
0.00003°
Longitude
-103.70283°
Altitude
730.028 km
Speed
7.482 km/s
True Right ascension
17h 24m 24s
True Declination
0° 00' 00"
Sunlit
Object was in full shadow at epoch
Visualization orbit readout
Latitude
Unknown
Longitude
Unknown
Altitude
Unknown
Speed
Unknown
Apparent Right ascension
Unknown
Apparent Declination
Unknown
Sunlit
N/A
Visualization observer readout
Local Sidereal Time
08:42:12
Azimuth
Unknown
Elevation
Unknown
Doppler factor
Unknown
Orbital elements
Apogee altitude
740.294 km
Perigee altitude
677.352 km
Semi-major axis
7,086.96 km
Eccentricity
0.00444
Inclination
88.8858°
RAAN
261.1032°
Arg. of periapsis
241.4395°
True anomaly
118.68134°
Mean anomaly
118.2342°
Eccentric anomaly
118.45789°
Mean motion
3.63792 °/min
Orbital period
98.96 mins
BSTAR
0.00091195
Loading maneuver chart data...
Computing Atmospheric mass density...
Loading historical data...
Loading historical data...
Loading historical data...
Loading historical data...
Loading historical data...
Loading historical data...
Loading historical data...

Documentation

Showing up to 5 results
|